User: anonymous   Login
Location: Rometta
(44.2000°N, 10.0500°E)
Time: 07:20:06
(UTC+00:00)
Language:

Cosmos 990 Rocket - Orbit

View from above orbital plane
View from above orbital plane
View from above satellite
View from above satellite

Ground track
Ground track

The orbit data is extracted from the following two-line orbital elements,

1 10677U 78019B   21104.51196970  .00000057  00000-0  26276-4 0  9991
2 10677  74.0379 239.4626 0015871 326.8414  33.1745 14.40175567263368
Epoch (UTC): 14 April 2021 12:17:14
Eccentricity: 0.0015871
inclination: 74.0379°
perigee height: 746 km
apogee height: 769 km
right ascension of ascending node: 239.4626°
argument of perigee: 326.8414°
revolutions per day: 14.40175567
mean anomaly at epoch: 33.1745°
orbit number at epoch: 26336

The dashed part of the orbit path shows where the satellite is in the earth's shadow,  

DLR